GW1476 Weather Reports


Display with metric or nautical units.
time (UTC)temp
F
wind
direction
speed
MPH
gust
MPH
rain 1hr
in
rain 24hr
in
rain mn
in
humidity
%
barometer
mb
20260504004247 53 203 0.0 0.0 0.00 0.00 0.00 64 1017.6
20260504003614 53 203 0.0 0.0 0.00 0.00 0.00 64 1017.6
20260504003040 54 248 0.0 0.0 0.00 0.00 0.00 61 1017.6
20260504002436 56 225 0.0 0.0 0.00 0.00 0.00 58 1017.2
20260504001818 56 203 0.0 0.0 0.00 0.00 0.00 58 1017.2
20260504001219 57 203 0.0 0.0 0.00 0.00 0.00 57 1017.2
20260504000654 58 203 0.0 0.0 0.00 0.00 0.00 54 1017.2
20260504000042 60 203 0.0 0.0 0.00 0.00 0.00 51 1017.2
20260503235412 60 203 0.0 0.0 0.00 0.00 0.00 52 1017.6
20260503234815 62 225 0.0 0.0 0.00 0.00 0.00 46 1017.6
20260503234236 64 45 0.0 0.0 0.00 0.00 0.00 45 1017.2
20260503233627 66 45 0.0 2.0 0.00 0.00 0.00 39 1017.6
20260503233035 66 45 0.0 0.0 0.00 0.00 0.00 39 1017.6
20260503232447 68 45 0.0 3.0 0.00 0.00 0.00 37 1017.6
20260503231819 66 45 2.0 3.0 0.00 0.00 0.00 37 1017.6
20260503231252 68 315 0.0 2.0 0.00 0.00 0.00 37 1017.6
20260503230636 68 270 1.0 7.0 0.00 0.00 0.00 36 1017.6
20260503230041 69 0 3.0 3.0 0.00 0.00 0.00 36 1017.6
20260503224223 68 45 2.0 3.0 0.00 0.00 0.00 36 1017.9
20260503223614 68 158 3.0 6.0 0.00 0.00 0.00 36 1017.9
20260503223014 68 68 2.0 2.0 0.00 0.00 0.00 37 1017.6
20260503222422 67 23 4.0 8.0 0.00 0.00 0.00 36 1017.9
20260503221820 68 23 8.0 10.0 0.00 0.00 0.00 36 1017.9
20260503221224 68 23 3.0 3.0 0.00 0.00 0.00 37 1017.9
20260503220654 66 45 6.0 8.0 0.00 0.00 0.00 37 1017.9
20260503220044 66 0 4.0 5.0 0.00 0.00 0.00 37 1017.9
20260503215439 66 203 5.0 6.0 0.00 0.00 0.00 37 1017.9
20260503214810 66 203 5.0 5.0 0.00 0.00 0.00 37 1017.9
20260503214224 67 338 2.0 4.0 0.00 0.00 0.00 36 1017.9
20260503213647 68 68 4.0 5.0 0.00 0.00 0.00 36 1017.9
20260503212440 67 315 4.0 7.0 0.00 0.00 0.00 37 1017.9
20260503211827 68 23 7.0 7.0 0.00 0.00 0.00 36 1017.9
20260503211227 67 113 5.0 5.0 0.00 0.00 0.00 37 1018.2
20260503210647 66 158 0.0 4.0 0.00 0.00 0.00 38 1018.2
20260503210017 67 68 2.0 2.0 0.00 0.00 0.00 37 1018.2
20260503205430 66 180 2.0 10.0 0.00 0.00 0.00 37 1018.2
20260503204242 67 248 2.0 5.0 0.00 0.00 0.00 36 1018.6
20260503203038 68 45 5.0 6.0 0.00 0.00 0.00 36 1018.6
20260503202422 66 225 1.0 6.0 0.00 0.00 0.00 35 1018.9
20260503201816 66 225 4.0 4.0 0.00 0.00 0.00 37 1018.9
20260503201234 67 338 6.0 7.0 0.00 0.00 0.00 36 1019.3
20260503200625 66 45 4.0 4.0 0.00 0.00 0.00 36 1019.3
20260503200026 66 270 3.0 3.0 0.00 0.00 0.00 38 1019.3
20260503195409 66 225 4.0 8.0 0.00 0.00 0.00 38 1019.6
20260503194821 68 315 7.0 7.0 0.00 0.00 0.00 36 1019.6
20260503194241 67 203 3.0 4.0 0.00 0.00 0.00 36 1019.6
20260503193621 67 248 3.0 6.0 0.00 0.00 0.00 36 1019.6
20260503193043 69 0 4.0 4.0 0.00 0.00 0.00 35 1019.9
20260503192436 67 23 4.0 4.0 0.00 0.00 0.00 38 1019.9
20260503191842 66 180 4.0 6.0 0.00 0.00 0.00 37 1020.3
20260503191249 66 180 3.0 6.0 0.00 0.00 0.00 36 1020.3
20260503190636 67 0 2.0 5.0 0.00 0.00 0.00 38 1020.3
20260503190052 68 225 4.0 4.0 0.00 0.00 0.00 36 1020.3
20260503185423 71 45 2.0 6.0 0.00 0.00 0.00 32 1020.6
20260503184846 71 270 1.0 4.0 0.00 0.00 0.00 36 1020.6
20260503184216 69 180 1.0 3.0 0.00 0.00 0.00 36 1020.6
20260503183031 71 23 2.0 3.0 0.00 0.00 0.00 33 1020.9
20260503182446 70 203 6.0 6.0 0.00 0.00 0.00 37 1020.9
20260503181853 66 225 3.0 4.0 0.00 0.00 0.00 38 1020.9
20260503181236 64 315 2.0 4.0 0.00 0.00 0.00 39 1020.9
20260503180651 63 158 3.0 6.0 0.00 0.00 0.00 40 1020.9
20260503180027 65 270 3.0 7.0 0.00 0.00 0.00 37 1021.3
20260503175417 64 158 2.0 5.0 0.00 0.00 0.00 39 1021.3
20260503174820 63 0 2.0 4.0 0.00 0.00 0.00 39 1021.3
20260503174213 63 315 1.0 6.0 0.00 0.00 0.00 39 1021.3
20260503173628 63 68 3.0 3.0 0.00 0.00 0.00 41 1021.6
20260503173035 63 225 2.0 2.0 0.00 0.00 0.00 43 1021.6
20260503172413 62 180 2.0 4.0 0.00 0.00 0.00 44 1021.6
20260503171814 61 225 1.0 2.0 0.00 0.00 0.00 44 1021.6
20260503171254 62 180 4.0 4.0 0.00 0.00 0.00 41 1022.0
20260503150630 58 135 2.0 3.0 0.00 0.00 0.00 51 1023.3
20260503130620 45 23 0.0 0.0 0.00 0.00 0.00 84 1023.7
20260503110645 33 338 0.0 0.0 0.00 0.00 0.00 99 1022.3
20260503081246 34 203 0.0 0.0 0.00 0.00 0.00 99 1021.3
20260503072411 34 248 0.0 0.0 0.00 0.00 0.00 99 1020.9
20260503071838 34 225 0.0 0.0 0.00 0.00 0.00 99 1020.9
20260503071227 35 203 0.0 0.0 0.00 0.00 0.00 99 1020.6
20260503070623 35 203 0.0 0.0 0.00 0.00 0.00 99 1020.6
20260503054237 39 293 0.0 0.0 0.00 0.00 0.00 95 1020.6
20260503053623 40 225 0.0 0.0 0.00 0.00 0.00 95 1020.6
20260503053051 40 90 0.0 0.0 0.00 0.00 0.00 95 1020.6
20260503052424 40 158 0.0 0.0 0.00 0.00 0.00 95 1020.6
20260503051854 40 203 0.0 0.0 0.00 0.00 0.00 95 1020.6
20260503051244 40 225 0.0 0.0 0.00 0.00 0.00 95 1020.6
20260503050649 40 180 0.0 0.0 0.00 0.00 0.00 95 1020.6
20260503050053 40 203 1.0 1.0 0.00 0.00 0.00 95 1020.6
20260503045418 40 158 1.0 1.0 0.00 0.00 0.00 95 1020.6
20260503044845 40 225 0.0 0.0 0.00 0.00 0.00 95 1020.6
20260503044242 40 225 0.0 0.0 0.00 0.00 0.00 95 1020.3
20260503043639 40 180 0.0 0.0 0.00 0.00 0.00 94 1020.3
20260503043016 39 225 0.0 0.0 0.00 0.00 0.00 93 1020.3
20260503042443 40 203 0.0 0.0 0.00 0.00 0.00 93 1020.3
20260503041823 40 180 0.0 0.0 0.00 0.00 0.00 94 1019.9
20260503040623 41 225 0.0 0.0 0.00 0.00 0.00 93 1019.9
20260503040047 41 270 0.0 0.0 0.00 0.00 0.00 94 1019.9
20260503035451 41 203 0.0 1.0 0.00 0.00 0.00 95 1019.9
20260503034851 40 23 1.0 1.0 0.00 0.00 0.00 93 1019.9
20260503034216 41 203 0.0 0.0 0.00 0.00 0.00 92 1019.9
20260503033638 41 293 0.0 0.0 0.00 0.00 0.00 90 1019.9
20260503032419 42 203 0.0 0.0 0.00 0.00 0.00 90 1019.6
20260503031839 42 203 0.0 0.0 0.00 0.00 0.00 89 1019.6
20260503031244 43 203 0.0 0.0 0.00 0.00 0.00 88 1019.6
20260503030642 43 225 0.0 0.0 0.00 0.00 0.00 85 1019.6
20260503030024 44 23 0.0 0.0 0.00 0.00 0.00 86 1019.6
20260503025424 44 270 0.0 0.0 0.00 0.00 0.00 85 1019.6
20260503024829 44 203 0.0 0.0 0.00 0.00 0.00 84 1019.6
20260503024233 45 180 0.0 0.0 0.00 0.00 0.00 81 1019.6
20260503023618 45 158 0.0 1.0 0.00 0.00 0.00 82 1019.6
20260503023036 46 180 2.0 2.0 0.00 0.00 0.00 81 1019.3
20260503022452 46 203 0.0 2.0 0.00 0.00 0.00 82 1019.3
20260503021852 46 203 0.0 3.0 0.00 0.00 0.00 79 1019.3
20260503021241 47 203 0.0 0.0 0.00 0.00 0.00 82 1019.3
20260503020644 47 180 0.0 0.0 0.00 0.00 0.00 80 1019.3
20260503020048 48 203 0.0 0.0 0.00 0.00 0.00 79 1019.3
20260503014817 49 203 0.0 0.0 0.00 0.00 0.00 75 1018.9
20260503014252 49 113 0.0 0.0 0.00 0.00 0.00 74 1018.9
20260503013627 49 225 0.0 0.0 0.00 0.00 0.00 75 1018.9
20260503013014 50 0 0.0 0.0 0.00 0.00 0.00 73 1018.9
20260503011811 50 45 3.0 4.0 0.00 0.00 0.00 64 1018.6
20260503011231 50 225 0.0 0.0 0.00 0.00 0.00 68 1018.6
20260503010623 50 23 0.0 2.0 0.00 0.00 0.00 65 1018.6
20260503010028 50 45 0.0 0.0 0.00 0.00 0.00 63 1018.2
20260503005414 51 270 0.0 1.0 0.00 0.00 0.00 64 1018.2
20260503004843 51 45 2.0 4.0 0.00 0.00 0.00 60 1018.2